sat.trackr.live / text

‹ back to catalog

LAGEOS 1

NORAD 8820 · 1976-039A

PAYLOAD ACTIVE UNKNOWN

§ Identity

Operator
Country
US
Launch date
1976-05-04
Launch site
AFWTR
Launch vehicle
Mass (kg)
RCS (m²)
0.40

Purposes: science

External: N2YO · Heavens-Above · Gunter

§ Orbital elements

Epoch: 2026-09-18T22:48:25.998624Z

Period
225.47 min
Inclination
109.8183°
Eccentricity
0.0044610
Mean motion
6.38664882 rev/d
Perigee alt
5,838.3 km
Apogee alt
5,947.8 km
Semi-major
12,271.2 km
B*
0.0000e+0
RAAN
211.4244°
Arg perigee
282.1745°
Mean anomaly
255.4351°
Rev number
91,912

§ Raw data

LAGEOS 11 08820U 76039A   26261.95030091  .00000003  00000+0  00000+0 0  99982 08820 109.8183 211.4244 0044610 282.1745 255.4351  6.38664882919120

JSON: /api/v1/satellites/8820 · /tle

For live sub-satellite position, see the globe view (requires WebGL).

§ Visibility from observer

Set your observer location to see the next 7 days of passes ≥ 10°. The values pass through the URL so the page stays shareable.

No JS? Fill the form by hand. The geolocation button needs JavaScript.